Regional Weather Roundup
Issued by NWS

Home | Current Version | Previous Version | Graphics & Text | Print | Product List | Glossary On
Versions: 1 2 3 4 5 6 7 8 9 10 11 12 13 14 15 16 17 18 19 20 21 22 23 24 25 26 27 28 29 30 31 32 33 34 35 36 37 38 39 40 41 42 43 44 45 46 47 48 49 50
000
ASUS43 KLSX 212157
RWRMO

WEATHER SUMMARY FOR MISSOURI
NATIONAL WEATHER SERVICE SPRINGFIELD MO
500 PM CDT THU SEP 21 2017

NOTE: "FAIR" INDICATES FEW OR NO CLOUDS BELOW 12,000 FEET WITH NO
       SIGNIFICANT WEATHER AND/OR OBSTRUCTIONS TO VISIBILITY.
       CURRENT SKY AND/OR WEATHER CONDITIONS ARE NOT AVAILABLE FOR
       CHILLICOTHE AND FARMINGTON.

MOZ001>031-035>038-043-044-053-054-212300-
...NORTHERN AND WESTERN MISSOURI...

CITY           SKY/WX    TMP DP  RH WIND       PRES   REMARKS
KANSAS CTY INT MOSUNNY   88  74  63 S24G31    29.84F HX  96
LEE`S SUMMIT   SUNNY     91  73  55 S22G30    29.87F HX  99
ST JOSEPH      PTSUNNY   91  74  57 S23G33    29.81F HX 100
CHILLICOTHE      N/A     91  71  51 S12G24    29.86F HX  97

$$
MOZ066>068-077>081-088>096-101>105-212300-
...SOUTHWEST MISSOURI...

CITY           SKY/WX    TMP DP  RH WIND       PRES   REMARKS
SPRINGFIELD    SUNNY     92  67  43 S12       29.93F HX  95
JOPLIN         SUNNY     88  74  63 S10G21    29.91F HX  96
BRANSON        MOSUNNY   90  66  45 SE10G17   29.98S HX  92

$$
MOZ032>034-039>042-045>050-055>058-069>072-212300-
...CENTRAL MISSOURI...

CITY           SKY/WX    TMP DP  RH WIND       PRES   REMARKS
COLUMBIA       NOT AVBL
JEFFERSON CITY SUNNY     91  68  46 S12       29.91F HX  95
ROLLA          MOSUNNY   89  67  47 S10       29.97S HX  92
SEDALIA        SUNNY     91  73  55 S13       29.92F HX  99
WARRENSBURG    SUNNY     90  68  48 SE13G22   29.88F HX  93

$$
MOZ051-052-059>065-212300-
...EAST CENTRAL MISSOURI...

CITY           SKY/WX    TMP DP  RH WIND       PRES   REMARKS
ST LOUIS INTL  CLOUDY    89  69  51 SE15      29.97F HX  93

$$
MOZ072>076-082>087-097>100-106>115-212300-
...SOUTH CENTRAL AND SOUTHEAST MISSOURI...

CITY           SKY/WX    TMP DP  RH WIND       PRES   REMARKS
CAPE GIRARDEAU SUNNY     90  69  50 SE9       29.97F HX  94
POPLAR BLUFF   MOSUNNY   90  71  53 S8        29.96F HX  96
WEST PLAINS    PTSUNNY   91  63  39 S12       30.00S HX  92

$$



USA.gov is the U.S. government's official web portal to all federal, state and local government web resources and services.